Terminal Aerodrome Forecast
Issued by NWS

Home | Current Version | Previous Version | Text Only | Print | Product List | Glossary On
Versions: 1 2 3 4 5 6 7 8 9 10 11 12 13 14
909
FTUS45 KRIW 051720
TAFJAC
TAF
KJAC 051720Z 0518/0618 VRB06KT P6SM SCT070 BKN130
     FM051900 19010G20KT P6SM VCSH SCT050 BKN080
     FM060200 02007KT P6SM VCSH SCT040 BKN070
     FM061300 VRB06KT P6SM VCSH SCT030 BKN060
      AMD LTD TO CLD VIS AND WIND=

USA.gov is the U.S. government's official web portal to all federal, state and local government web resources and services.